Skip Page Navigation
NASA JPL Caltech
NASA Logo - Jet Propulsion Laboratory + View the NASA Portal
+ Center for Near-Earth Object Studies
JPL Home Earth Solar System Stars & Galaxies Technology
JPL Solar System Dynamics
BODIES ORBITS EPHEMERIDES TOOLS PHYSICAL DATA DISCOVERY FAQ SITE MAP
IMPORTANT: The SSD Announcement email list is now available. Major changes are coming in the near future, including possible hostname and/or URL changes. To be notified of such changes, subscribe to this email list.

Please visit this page for more details.


JPL Small-Body Database Browser
Search: [ help ]  
193753 (2001 KB25)
Classification: Main-belt Asteroid          SPK-ID: 2193753
Ephemeris | Orbit Diagram | Orbital Elements | Mission Design | Physical Parameters | Discovery Circumstances | Close-Approach Data ]

[ show orbit diagram ]
Orbital Elements at Epoch 2459000.5 (2020-May-31.0) TDB
Reference: JPL 15 (heliocentric ecliptic J2000)
 Element Value Uncertainty (1-sigma)   Units 
e .156793459672205 5.0879e-08  
a 3.103237467562583 2.9209e-08 au
q 2.616670128839034 1.5907e-07 au
i 4.155286108210262 6.0555e-06 deg
node 59.68272156868783 7.4961e-05 deg
peri 184.3733155311672 7.7033e-05 deg
M 169.3390257855402 1.9356e-05 deg
tp 2458061.262339125768
(2017-Nov-03.76233913)
0.00010291 TDB
period 1996.737351866801
5.47
2.8191e-05
7.718e-08
d
yr
n .1802941181339783 2.5455e-09 deg/d
Q 3.589804806286133 3.3789e-08 au
  Orbit Determination Parameters
   # obs. used (total)      270  
   data-arc span      6801 days (18.62 yr)  
   first obs. used      2001-05-15  
   last obs. used      2019-12-28  
   planetary ephem.      DE431  
   SB-pert. ephem.      SB431-N16  
   condition code      0  
   norm. resid. RMS      .59485  
   source      ORB  
   producer      Otto Matic  
   solution date      2020-Feb-24 22:08:10  

Additional Information
 Earth MOID = 1.6036 au 
 Jupiter MOID = 1.43141 au 
 T_jup = 3.198 
[ show covariance matrix ]

Ephemeris | Orbit Diagram | Orbital Elements | Mission Design | Physical Parameters | Discovery Circumstances | Close-Approach Data ]

Physical Parameter Table
Parameter Symbol Value Units Sigma Reference Notes
absolute magnitude H 15.6   n/a MPO454345  

193753 (2001 KB25)          Discovered 2001-May-17 by LINEAR at Socorro
Reference: 20081113/Numbers.arcLast Updated: 2008-11-17

[ show close-approach data ]
Alternate Designations
 2001 KB25 = 2006 DY183 
Ephemeris | Orbit Diagram | Orbital Elements | Mission Design | Physical Parameters | Discovery Circumstances | Close-Approach Data ]
ABOUT SSD CREDITS/AWARDS PRIVACY/COPYRIGHT GLOSSARY LINKS
FirstGov 2020-May-25 18:37 UT
(server date/time)  
NASA Home Page
Site Manager:   Ryan S. Park
Webmaster  Alan B. Chamberlin